RYR235W EGPH-EGNM

Flight info

Callsign RYR235W
Flight time N/A
Altitude 24000
Route GOSAM P600 FENIK/N0385F230 L612 CALDA DCT POL
Aircraft B738/M-SABDFGRVYL/LB2

Departure

Time 2026-04-23 14:52
Airport Edinburgh Airport (EGPH)

Arrival

Time N/A
Airport Leeds Bradford Airport (EGNM)
Time Latitude Longitude Altitude Speed Heading
2026-04-23 14:29 55.94907 -3.36497 102 ft 0 kts 148°
2026-04-23 14:44 55.94915 -3.36507 102 ft 2 kts 148°
2026-04-23 14:45 55.94928 -3.36521 102 ft 2 kts 148°
2026-04-23 14:45 55.94941 -3.36535 102 ft 2 kts 161°
2026-04-23 14:45 55.94956 -3.36537 102 ft 2 kts 193°
2026-04-23 14:45 55.94970 -3.36526 102 ft 2 kts 222°
2026-04-23 14:46 55.94975 -3.36515 102 ft 1 kts 239°
2026-04-23 14:46 55.94978 -3.36505 102 ft 0 kts 239°
2026-04-23 14:48 55.94973 -3.36522 102 ft 5 kts 239°
2026-04-23 14:48 55.94939 -3.36623 102 ft 10 kts 239°
2026-04-23 14:48 55.94901 -3.36755 101 ft 14 kts 269°
2026-04-23 14:49 55.94896 -3.36974 100 ft 22 kts 240°
2026-04-23 14:49 55.94806 -3.37245 102 ft 28 kts 239°
2026-04-23 14:49 55.94690 -3.37586 102 ft 36 kts 239°
2026-04-23 14:49 55.94554 -3.37990 107 ft 36 kts 238°
2026-04-23 14:50 55.94431 -3.38350 111 ft 32 kts 239°
2026-04-23 14:50 55.94323 -3.38671 112 ft 25 kts 239°
2026-04-23 14:50 55.94320 -3.38900 115 ft 19 kts 325°
2026-04-23 14:50 55.94432 -3.38910 113 ft 16 kts 47°
2026-04-23 14:51 55.94462 -3.38836 112 ft 0 kts 58°
2026-04-23 14:51 55.94463 -3.38835 112 ft 0 kts 59°
2026-04-23 14:51 55.94479 -3.38787 111 ft 24 kts 59°
2026-04-23 14:51 55.94745 -3.38001 103 ft 118 kts 59°
2026-04-23 14:52 55.95278 -3.36448 482 ft 162 kts 58°
2026-04-23 14:52 55.95936 -3.34651 1007 ft 195 kts 58°
2026-04-23 14:52 55.96704 -3.32621 1976 ft 199 kts 54°
2026-04-23 14:52 55.97777 -3.30885 2552 ft 218 kts 38°
2026-04-23 14:53 55.99036 -3.29237 3085 ft 238 kts 39°
2026-04-23 14:53 56.00419 -3.27559 3675 ft 251 kts 25°
2026-04-23 14:53 56.02171 -3.26838 4392 ft 267 kts
2026-04-23 14:53 56.04006 -3.27224 5289 ft 272 kts 345°
2026-04-23 14:54 56.05737 -3.28618 5867 ft 275 kts 322°
2026-04-23 14:54 56.06979 -3.31168 5987 ft 274 kts 296°
2026-04-23 14:54 56.07542 -3.34316 5979 ft 268 kts 277°
2026-04-23 14:54 56.07600 -3.37621 5977 ft 266 kts 261°
2026-04-23 14:55 56.06988 -3.40698 5971 ft 264 kts 236°
2026-04-23 14:55 56.05732 -3.43054 5969 ft 263 kts 217°
2026-04-23 14:55 56.04182 -3.44821 5965 ft 263 kts 210°
2026-04-23 14:55 56.02618 -3.46481 5965 ft 263 kts 213°
2026-04-23 14:56 56.01279 -3.48730 5965 ft 264 kts 236°
2026-04-23 14:56 56.00529 -3.51679 5967 ft 266 kts 252°
2026-04-23 14:56 56.00069 -3.54906 5962 ft 266 kts 256°
2026-04-23 14:56 55.99673 -3.58094 5967 ft 267 kts 256°
2026-04-23 14:57 55.99252 -3.61340 5968 ft 266 kts 256°
2026-04-23 14:57 55.98812 -3.64536 5959 ft 266 kts 255°
2026-04-23 14:57 55.98360 -3.67727 5963 ft 267 kts 254°
2026-04-23 14:57 55.97900 -3.70931 5959 ft 266 kts 254°
2026-04-23 14:58 55.97435 -3.74145 5952 ft 266 kts 254°
2026-04-23 14:58 55.96976 -3.77324 5945 ft 266 kts 254°
2026-04-23 14:58 55.96521 -3.80495 5953 ft 266 kts 254°
2026-04-23 14:58 55.96063 -3.83687 5968 ft 265 kts 254°
2026-04-23 14:59 55.95603 -3.86878 5946 ft 266 kts 253°
2026-04-23 14:59 55.95139 -3.90069 5942 ft 266 kts 254°
2026-04-23 14:59 55.94673 -3.93263 5948 ft 267 kts 254°
2026-04-23 14:59 55.94206 -3.96459 5948 ft 267 kts 254°
2026-04-23 15:00 55.93607 -3.99545 5941 ft 265 kts 243°
2026-04-23 15:00 55.92616 -4.02324 5952 ft 264 kts 230°
2026-04-23 15:00 55.91352 -4.04691 5948 ft 263 kts 221°
2026-04-23 15:00 55.89946 -4.06739 5948 ft 264 kts 216°
2026-04-23 15:01 55.88439 -4.08625 5951 ft 264 kts 213°
2026-04-23 15:01 55.86924 -4.10421 5950 ft 264 kts 213°
2026-04-23 15:01 55.85381 -4.12244 5949 ft 263 kts 213°
2026-04-23 15:01 55.83858 -4.14065 5953 ft 264 kts 213°
2026-04-23 15:02 55.82852 -4.15276 5952 ft 262 kts 213°
2026-04-23 15:02 55.80851 -4.17688 6023 ft 263 kts 213°
2026-04-23 15:02 55.79278 -4.19583 6373 ft 287 kts 213°
2026-04-23 15:02 55.77571 -4.21664 6747 ft 313 kts 214°
2026-04-23 15:03 55.75707 -4.23977 7127 ft 338 kts 214°
2026-04-23 15:03 55.73670 -4.26205 7504 ft 347 kts 206°
2026-04-23 15:03 55.71377 -4.27390 7869 ft 350 kts 185°
2026-04-23 15:03 55.68956 -4.26805 8246 ft 355 kts 161°
2026-04-23 15:04 55.66737 -4.24908 8619 ft 358 kts 152°
2026-04-23 15:04 55.64571 -4.22696 9005 ft 361 kts 150°
2026-04-23 15:04 55.62420 -4.20451 9373 ft 363 kts 150°
2026-04-23 15:04 55.60247 -4.18218 9746 ft 365 kts 151°
2026-04-23 15:05 55.58026 -4.15984 10133 ft 368 kts 152°
2026-04-23 15:05 55.55789 -4.13772 10510 ft 369 kts 152°
2026-04-23 15:05 55.53545 -4.11574 10885 ft 371 kts 152°
2026-04-23 15:05 55.51270 -4.09359 11261 ft 373 kts 152°
2026-04-23 15:06 55.49018 -4.07171 11654 ft 375 kts 152°
2026-04-23 15:06 55.46721 -4.04942 12042 ft 378 kts 152°
2026-04-23 15:06 55.44402 -4.02693 12427 ft 379 kts 152°
2026-04-23 15:06 55.42083 -4.00446 12904 ft 382 kts 152°
2026-04-23 15:07 55.39765 -3.98203 13389 ft 384 kts 151°
2026-04-23 15:07 55.37419 -3.95934 13878 ft 388 kts 152°
2026-04-23 15:07 55.35047 -3.93645 14370 ft 392 kts 151°
2026-04-23 15:07 55.32641 -3.91327 14866 ft 397 kts 151°
2026-04-23 15:08 55.30200 -3.88977 15358 ft 401 kts 151°
2026-04-23 15:08 55.27764 -3.86635 15846 ft 403 kts 151°
2026-04-23 15:08 55.25302 -3.84271 16336 ft 407 kts 151°
2026-04-23 15:09 55.20283 -3.79463 17332 ft 415 kts 150°
2026-04-23 15:09 55.17763 -3.77054 17825 ft 418 kts 150°
2026-04-23 15:09 55.15224 -3.74630 18322 ft 421 kts 150°
2026-04-23 15:09 55.12651 -3.72179 18831 ft 423 kts 150°
2026-04-23 15:10 55.10906 -3.70517 19172 ft 425 kts 150°
2026-04-23 15:10 55.07447 -3.67228 19843 ft 430 kts 150°
2026-04-23 15:10 55.04821 -3.64736 20352 ft 433 kts 150°
2026-04-23 15:10 55.02158 -3.62215 20862 ft 436 kts 150°
2026-04-23 15:11 54.99513 -3.59715 21368 ft 438 kts 150°
2026-04-23 15:11 54.96838 -3.57189 21878 ft 442 kts 150°
2026-04-23 15:11 54.94126 -3.54632 22395 ft 445 kts 150°
2026-04-23 15:11 54.91389 -3.52056 22919 ft 449 kts 151°
2026-04-23 15:12 54.88658 -3.49489 23450 ft 452 kts 150°
2026-04-23 15:12 54.85856 -3.46859 23981 ft 457 kts 150°
2026-04-23 15:12 54.83078 -3.44257 24366 ft 463 kts 150°
2026-04-23 15:12 54.80220 -3.41583 24417 ft 462 kts 150°
2026-04-23 15:13 54.77391 -3.38942 24425 ft 460 kts 150°
2026-04-23 15:13 54.74583 -3.36322 24421 ft 461 kts 150°
2026-04-23 15:13 54.71771 -3.33712 24423 ft 462 kts 152°
2026-04-23 15:13 54.69052 -3.31369 24419 ft 461 kts 154°
2026-04-23 15:14 54.66140 -3.29097 24421 ft 461 kts 156°
2026-04-23 15:14 54.63202 -3.26927 24421 ft 462 kts 157°
2026-04-23 15:14 54.60219 -3.24769 24416 ft 462 kts 157°
2026-04-23 15:14 54.57287 -3.22656 24412 ft 463 kts 157°
2026-04-23 15:15 54.54327 -3.20516 24411 ft 463 kts 157°
2026-04-23 15:15 54.51352 -3.18352 24408 ft 462 kts 156°
2026-04-23 15:15 54.48388 -3.16185 24406 ft 462 kts 156°
2026-04-23 15:15 54.45433 -3.14017 24406 ft 464 kts 156°
2026-04-23 15:16 54.42464 -3.11832 24408 ft 463 kts 156°
2026-04-23 15:16 54.39502 -3.09649 24413 ft 463 kts 156°
2026-04-23 15:16 54.36576 -3.07492 24414 ft 463 kts 156°
2026-04-23 15:16 54.33601 -3.05299 24415 ft 463 kts 156°
2026-04-23 15:17 54.30675 -3.03143 24415 ft 463 kts 156°
2026-04-23 15:17 54.27679 -3.00937 24419 ft 463 kts 156°
2026-04-23 15:17 54.24746 -2.98782 24419 ft 464 kts 156°
2026-04-23 15:17 54.21796 -2.96617 24419 ft 463 kts 156°
2026-04-23 15:18 54.18840 -2.94449 24424 ft 464 kts 156°
2026-04-23 15:18 54.15863 -2.92270 24435 ft 465 kts 156°
2026-04-23 15:18 54.12870 -2.90083 24434 ft 465 kts 156°
2026-04-23 15:18 54.09917 -2.87928 24438 ft 466 kts 156°
2026-04-23 15:19 54.06950 -2.85766 24442 ft 465 kts 156°
2026-04-23 15:19 54.03950 -2.83584 24292 ft 464 kts 156°
2026-04-23 15:19 54.01027 -2.81462 23837 ft 454 kts 156°
2026-04-23 15:19 53.98168 -2.79391 23350 ft 444 kts 156°
2026-04-23 15:20 53.96294 -2.78034 23031 ft 438 kts 156°
2026-04-23 15:20 53.92598 -2.75361 22381 ft 426 kts 156°
2026-04-23 15:20 53.89919 -2.73425 21903 ft 418 kts 156°
2026-04-23 15:20 53.87281 -2.71522 21437 ft 410 kts 156°
2026-04-23 15:21 53.84696 -2.69644 20970 ft 403 kts 154°
2026-04-23 15:21 53.82230 -2.67392 20494 ft 395 kts 145°
2026-04-23 15:21 53.80116 -2.64541 20032 ft 387 kts 135°
2026-04-23 15:21 53.78394 -2.61126 19520 ft 381 kts 123°
2026-04-23 15:22 53.77148 -2.57251 18923 ft 377 kts 109°
2026-04-23 15:22 53.76562 -2.52965 18277 ft 370 kts 96°
2026-04-23 15:22 53.76337 -2.48673 17692 ft 361 kts 93°
2026-04-23 15:22 53.76180 -2.44501 17106 ft 354 kts 93°
2026-04-23 15:23 53.76025 -2.40457 16507 ft 348 kts 94°
2026-04-23 15:23 53.75845 -2.36430 15879 ft 343 kts 95°
2026-04-23 15:23 53.75657 -2.32442 15250 ft 338 kts 95°
2026-04-23 15:23 53.75491 -2.28526 14650 ft 335 kts 95°
2026-04-23 15:24 53.75357 -2.24633 14030 ft 332 kts 95°
2026-04-23 15:24 53.75241 -2.20758 13402 ft 329 kts 94°
2026-04-23 15:24 53.75131 -2.16909 12774 ft 326 kts 94°
2026-04-23 15:24 53.75035 -2.13125 12150 ft 324 kts 91°
2026-04-23 15:25 53.75409 -2.09432 11517 ft 323 kts 69°
2026-04-23 15:25 53.76604 -2.06255 10882 ft 321 kts 45°
2026-04-23 15:25 53.77749 -2.04698 10463 ft 319 kts 33°
2026-04-23 15:25 53.80328 -2.02332 9620 ft 316 kts 26°
2026-04-23 15:26 53.82306 -2.00707 9002 ft 316 kts 25°
2026-04-23 15:26 53.84270 -1.99118 8303 ft 316 kts 25°
2026-04-23 15:26 53.86234 -1.97537 7561 ft 317 kts 25°
2026-04-23 15:26 53.88235 -1.95943 6808 ft 316 kts 25°
2026-04-23 15:27 53.90199 -1.94398 6068 ft 315 kts 25°
2026-04-23 15:27 53.92180 -1.92856 5314 ft 314 kts 25°
2026-04-23 15:27 53.94189 -1.91311 4567 ft 319 kts 25°
2026-04-23 15:27 53.96195 -1.89786 3939 ft 319 kts 25°
2026-04-23 15:28 53.98180 -1.88177 3684 ft 305 kts 33°
2026-04-23 15:28 53.99645 -1.85835 3670 ft 282 kts 58°
2026-04-23 15:28 54.00295 -1.82864 3668 ft 260 kts 85°
2026-04-23 15:28 54.00046 -1.79984 3669 ft 242 kts 114°
2026-04-23 15:29 53.99024 -1.77866 3672 ft 227 kts 144°
2026-04-23 15:29 53.97654 -1.76779 3547 ft 215 kts 156°
2026-04-23 15:29 53.96258 -1.75794 3112 ft 218 kts 154°
2026-04-23 15:29 53.94885 -1.74661 2759 ft 218 kts 150°
2026-04-23 15:30 53.93568 -1.73400 2413 ft 217 kts 147°
2026-04-23 15:30 53.92296 -1.72090 2166 ft 208 kts 150°
2026-04-23 15:30 53.91099 -1.70861 1946 ft 198 kts 144°
2026-04-23 15:30 53.89991 -1.69506 1494 ft 200 kts 142°
2026-04-23 15:31 53.88763 -1.68250 1331 ft 219 kts 159°
2026-04-23 15:31 53.87204 -1.67012 764 ft 273 kts 136°